Air Resources Laboratory banner image
Air Resources Laboratory web site National Oceanic and Atmospheric Administration (NOAA)

pa roundup


Office: CTP

ASUS41 KCTP 200603
RWRCTP

REGIONAL WEATHER ROUNDUP
NATIONAL WEATHER SERVICE STATE COLLEGE PA
100 AM EST TUE FEB 20 2018

Note: "fair" indicates few or no clouds below 12,000 feet with no
significant weather and/or obstructions to visibility.

* = STATION THAT DOES NOT REPORT PRECIPITATION /E.G. RAIN...SNOW...ETC/
    THUNDER OR FOG.

PAZ002>004-007>009-013>016-020>023-029>032-200700-
WESTERN PENNSYLVANIA

CITY           SKY/WX    TMP DP  RH WIND       PRES   REMARKS
ERIE           CLOUDY    63  55  75 SW9       30.04R
MEADVILLE      CLOUDY    61  54  77 S12G24    30.08S
FRANKLIN*      FAIR      56  52  86 S12       30.12S
NEW CASTLE     FAIR      61  56  83 VRB6      30.11F
BEAVER COUNTY  NOT AVBL
BUTLER*        FAIR      59  52  77 S9        30.14S
PITTSBURGH INT FAIR      64  51  62 S10       30.14R
PITTSBURGH     FAIR      61  50  67 S13       30.15S
INDIANA*       CLEAR     61  54  77 SW8       30.20F
LATROBE        FAIR      61  52  72 SW12      30.18S
WASHINGTON CO* FAIR      63  52  67 S9        30.19S
$$

PAZ004>006-010>012-017>019-024>028-033>037-041-042-045-046-049>053-200700-
CENTRAL PENNSYLVANIA

CITY           SKY/WX    TMP DP  RH WIND       PRES   REMARKS
BRADFORD       FAIR      53  51  93 VRB7      30.13F
DUBOIS         FAIR      55  49  80 SW8       30.15S
CLEARFIELD     MOCLDY    36  36 100 N5        30.19S FOG
JOHNSTOWN      FAIR      59  50  72 SW12G21   30.20F
ALTOONA        FOG       37  36  96 CALM      30.23F VSB 3/4
STATE COLLEGE  FAIR      38  37  99 CALM      30.23F FOG
WILLIAMSPORT   CLOUDY    40  40 100 S3        30.27S FOG
SELINSGROVE    FOG       39  39 100 CALM      30.29S VSB 1/4
FT INDIANTOWN  FOG       40  40 100 CALM      30.30F VSB 1/4
CAPITAL CITY   CLOUDY    44  44 100 CALM      30.31S FOG
HARRISBURG     FOG       42  41  96 CALM      30.30S VSB 1
YORK           CLOUDY    47  46  97 CALM      30.30S
$$

PAZ038>040-043-044-047-048-054-055-060>062-067>071-200700-
EASTERN PENNSYLVANIA

CITY           SKY/WX    TMP DP  RH WIND       PRES   REMARKS
SCRANTON       MOCLDY    40  39  97 CALM      30.26F FOG
MOUNT POCONO   CLOUDY    40  40 100 W9        30.24F
ALLENTOWN      FOG       38  35  89 CALM      30.31F VSB 1/4
QUAKERTOWN*    FOG       37  37 100 CALM      30.31F VSB 1/4
READING        FOG       38  38 100 CALM      30.31F VSB 1/4
LANCASTER      FOG       43  43 100 E3        30.31S VSB 1/4
COATESVILLE    FOG       46 N/A N/A CALM      30.33R VSB 1/4
POTTSTOWN      FOG       41  41 100 CALM      30.33S VSB 1/2
BLUE BELL      CLOUDY    46  46 100 CALM      30.34R
DOYLESTOWN     FOG       43  43 100 SW3       30.31S VSB 1/2
WILLOW GROVE   NOT AVBL
NORTH PHILA    CLOUDY    52  50  93 SW8       30.34S FOG
PHILADELPHIA   FOG       47  47 100 W7        30.34S VSB 1/2
$$




Office: PHI ASUS41 KPHI 200513 RWRPHI REGIONAL WEATHER ROUNDUP NATIONAL WEATHER SERVICE MOUNT HOLLY NJ 1200 AM EST TUE FEB 20 2018 NOTE: "FAIR" INDICATES FEW OR NO CLOUDS BELOW 12,000 FEET WITH NO SIGNIFICANT WEATHER AND/OR OBSTRUCTIONS TO VISIBILITY. * = STATION DOES NOT REPORT PRECIPITATION (E.G. RAIN, SNOW, ETC.) OR FOG. NJZ015>026-200600- SOUTHERN NEW JERSEY CITY SKY/WX TMP DP RH WIND PRES REMARKS POMONA CLOUDY 51 51 100 S8 30.35F FOG WILDWOOD* CLOUDY 48 47 96 S7 30.37F MILLVILLE CLOUDY 50 49 96 S3 30.35F FOG WRIGHTSTOWN CLOUDY 53 53 99 SW8 30.29F MOUNT HOLLY CLOUDY 54 54 100 SW6 30.32F TRENTON FOG 47 46 97 CALM 30.31F VSB 1/4 $$ NJZ001>014-200600- NORTHERN NEW JERSEY CITY SKY/WX TMP DP RH WIND PRES REMARKS SUSSEX FOG 39 39 100 CALM 30.30S VSB 1/2 ANDOVER* N/A 38 38 100 CALM 30.31S MORRISTOWN FOG 39 39 100 CALM 30.31S VSB 1/4 NEWARK DRZL/FOG 46 46 100 CALM 30.31F VSB 1/4 TETERBORO DRZL/FOG 45 45 100 CALM 30.30F VSB 1/4 CALDWELL FOG 41 41 100 CALM 30.31F VSB 1/2 SOMERVILLE FOG 39 39 100 CALM 30.31F VSB 3/4 ALLAIRE* LGT RAIN 52 52 100 S8 30.33F VSB 3/4 TOMS RIVER* FOG 52 51 97 SW7 30.34F VSB 3/4 $$ PAZ043-044-047-054-055-060>062-066>071-200600- EASTERN PENNSYLVANIA CITY SKY/WX TMP DP RH WIND PRES REMARKS PHILADELPHIA FOG 48 48 100 SW6 30.34S VSB 1/4 NORTH PHILA CLOUDY 52 50 93 SW9 30.33F FOG BLUE BELL* CLOUDY 46 46 100 SW3 30.33S DOYLESTOWN FOG 43 42 97 CALM 30.31F VSB 1/2 QUAKERTOWN* FOG 37 37 100 CALM 30.32S VSB 1/4 PERKASIE* FOG 39 39 100 CALM 30.32S VSB<1/4 POTTSTOWN FOG 40 40 100 CALM 30.33F VSB 1/2 LANCASTER FOG 43 43 100 CALM 30.31F VSB 1/4 COATESVILLE FOG 45 N/A N/A S5 30.32S VSB 1/4 READING FOG 38 38 100 N3 30.31F VSB 1/4 ALLENTOWN FOG 37 35 92 CALM 30.32S VSB 1/4 MOUNT POCONO CLOUDY 40 40 100 W6 30.26S FOG HAZLETON FOG 41 39 93 SE3 30.30S VSB 1/4 LEHIGHTON FOG 34 34 100 CALM 30.33S VSB 1/4 WILKES BARRE FAIR 41 40 96 SW3 30.27R $$ DEZALL-MDZ008-012-015-019-020-200600- DELAWARE AND EASTERN MARYLAND CITY SKY/WX TMP DP RH WIND PRES REMARKS WILMINGTON FOG 45 45 100 CALM 30.34S VSB 1/2 DOVER CLOUDY 55 53 94 SW10 30.34F GEORGETOWN CLOUDY 59 55 87 SW10 30.37F EASTON CLOUDY 53 52 95 SW7 30.40R ABERDEEN CLOUDY N/A N/A N/A SW7 30.35 FOG PATUXENT MOCLDY 52 52 100 SW7 30.37S OCEAN CITY CLOUDY 51 51 100 SW6 30.40S WALLOPS ISLAND CLOUDY 51 50 96 S3 30.41S FOG CAMBRIDGE CLOUDY 52 50 93 S5 30.37S FOG SALISBURY CLOUDY 57 56 96 SW7 30.38F $$ PAZ001-021-NYZ056-072-MDZ011-DCZ001-200600- OTHER NEARBY LOCATIONS CITY SKY/WX TMP DP RH WIND PRES REMARKS HARRISBURG FOG 44 42 93 CALM 30.30F VSB 1 STATE COLLEGE FAIR 37 37 99 CALM 30.24S FOG WILLIAMSPORT FOG 40 40 100 E6 30.27F VSB 1 BINGHAMTON CLOUDY 41 40 96 S7 30.18S FOG NEW YORK CITY CLOUDY 48 47 96 CALM 30.33F FOG BALTIMORE CLOUDY 48 48 100 SW3 30.34S WASHINGTON DC CLOUDY 50 49 96 S12 30.35F $$